DAL60 SBGL-KATL

Flight info

Callsign DAL60
Flight time N/A
Altitude 30000
Route ENSOD UM409 SEKPO UZ26 ILKUS DCT VUGOS UL776 NUVUG DCT ETETI UP535 SUMVA DCT ADVET DCT KORTO UG449 ANADA DCT DONQU DCT CERDA DCT LETON/M077F300 L451 JAINS/N0454F300 Y436 DEDDY DCT HOTHH JJEDI4
Aircraft B764/H-SDE3FGHIM3RWXY/LB1

Departure

Time 2026-05-04 16:41
Airport Rio Galeão – Tom Jobim International Airport (SBGL)

Arrival

Time N/A
Airport Hartsfield Jackson Atlanta International Airport (KATL)
Time Latitude Longitude Altitude Speed Heading
2026-05-04 15:41 -22.81943 -43.24406 40 ft 0 kts 35°
2026-05-04 16:19 -22.81966 -43.24423 39 ft 2 kts 34°
2026-05-04 16:20 -22.82022 -43.24456 37 ft 4 kts 12°
2026-05-04 16:20 -22.82076 -43.24442 36 ft 3 kts 311°
2026-05-04 16:21 -22.82097 -43.24409 36 ft 1 kts 299°
2026-05-04 16:22 -22.82105 -43.24396 36 ft 0 kts 304°
2026-05-04 16:24 -22.82103 -43.24399 36 ft 0 kts 304°
2026-05-04 16:25 -22.82091 -43.24417 36 ft 1 kts 304°
2026-05-04 16:26 -22.82037 -43.24479 36 ft 5 kts 316°
2026-05-04 16:26 -22.81956 -43.24563 37 ft 4 kts 310°
2026-05-04 16:27 -22.81965 -43.24613 37 ft 5 kts 222°
2026-05-04 16:28 -22.82112 -43.24780 29 ft 9 kts 290°
2026-05-04 16:28 -22.81932 -43.25055 27 ft 19 kts 306°
2026-05-04 16:29 -22.81645 -43.25487 28 ft 14 kts 305°
2026-05-04 16:30 -22.81498 -43.25709 27 ft 9 kts 305°
2026-05-04 16:31 -22.81429 -43.25812 27 ft 7 kts 306°
2026-05-04 16:31 -22.81312 -43.25977 25 ft 7 kts 334°
2026-05-04 16:32 -22.81243 -43.25917 27 ft 7 kts 55°
2026-05-04 16:33 -22.81141 -43.25824 28 ft 11 kts 34°
2026-05-04 16:33 -22.80984 -43.25705 30 ft 16 kts 35°
2026-05-04 16:34 -22.80782 -43.25547 28 ft 17 kts 36°
2026-05-04 16:34 -22.80686 -43.25472 27 ft 15 kts 36°
2026-05-04 16:35 -22.80569 -43.25483 27 ft 4 kts 307°
2026-05-04 16:35 -22.80514 -43.25540 27 ft 3 kts 327°
2026-05-04 16:36 -22.80489 -43.25557 27 ft 4 kts 326°
2026-05-04 16:36 -22.80429 -43.25600 27 ft 5 kts 327°
2026-05-04 16:37 -22.80359 -43.25599 27 ft 7 kts 32°
2026-05-04 16:37 -22.80314 -43.25561 27 ft 9 kts 38°
2026-05-04 16:37 -22.80197 -43.25461 27 ft 9 kts 38°
2026-05-04 16:38 -22.80153 -43.25378 27 ft 8 kts 74°
2026-05-04 16:39 -22.80151 -43.25368 27 ft 0 kts 74°
2026-05-04 16:39 -22.80135 -43.25306 27 ft 26 kts 74°
2026-05-04 16:40 -22.79845 -43.24189 28 ft 123 kts 74°
2026-05-04 16:40 -22.79245 -43.21849 254 ft 182 kts 75°
2026-05-04 16:41 -22.78623 -43.19233 1259 ft 184 kts 76°
2026-05-04 16:41 -22.77674 -43.14681 1814 ft 237 kts 76°
2026-05-04 16:42 -22.76515 -43.09135 3244 ft 259 kts 75°
2026-05-04 16:43 -22.75707 -43.05286 4448 ft 268 kts 75°
2026-05-04 16:43 -22.74527 -43.01444 5603 ft 274 kts 48°
2026-05-04 16:43 -22.73056 -43.00195 6199 ft 273 kts 20°
2026-05-04 16:44 -22.65576 -43.01371 8599 ft 282 kts 338°
2026-05-04 16:45 -22.61860 -43.02847 9818 ft 289 kts 338°
2026-05-04 16:46 -22.55697 -43.05276 10537 ft 346 kts 339°
2026-05-04 16:46 -22.51122 -43.07073 11957 ft 356 kts 338°
2026-05-04 16:47 -22.46411 -43.08923 13329 ft 365 kts 338°
2026-05-04 16:47 -22.41517 -43.10846 14028 ft 383 kts 338°
2026-05-04 16:48 -22.34178 -43.13722 14025 ft 364 kts 338°
2026-05-04 16:48 -22.31860 -43.14772 14019 ft 363 kts 328°
2026-05-04 16:49 -22.27480 -43.17664 15075 ft 368 kts 326°
2026-05-04 16:49 -22.23020 -43.20478 16450 ft 374 kts 327°
2026-05-04 16:50 -22.18473 -43.23284 17817 ft 379 kts 327°
2026-05-04 16:50 -22.13851 -43.26114 19214 ft 385 kts 327°
2026-05-04 16:51 -22.09130 -43.28996 20581 ft 391 kts 326°
2026-05-04 16:51 -22.06764 -43.30439 21253 ft 393 kts 326°
2026-05-04 16:51 -22.01977 -43.33356 22461 ft 399 kts 326°
2026-05-04 16:52 -21.97085 -43.36333 23618 ft 405 kts 326°
2026-05-04 16:52 -21.94609 -43.37840 24120 ft 408 kts 326°
2026-05-04 16:53 -21.89616 -43.40875 25084 ft 414 kts 325°
2026-05-04 16:53 -21.82017 -43.45491 26341 ft 422 kts 325°
2026-05-04 16:54 -21.79461 -43.47041 26702 ft 425 kts 325°
2026-05-04 16:55 -21.69038 -43.53360 28122 ft 432 kts 324°
2026-05-04 16:55 -21.63773 -43.56547 28782 ft 435 kts 324°
2026-05-04 16:56 -21.58485 -43.59746 29381 ft 438 kts 324°
2026-05-04 16:56 -21.50508 -43.64568 30182 ft 443 kts 324°
2026-05-04 16:57 -21.42430 -43.69445 30284 ft 449 kts 324°
2026-05-04 16:58 -21.31417 -43.76080 30314 ft 459 kts 324°
2026-05-04 17:00 -21.19692 -43.83131 30283 ft 456 kts 324°
2026-05-04 17:01 -21.05848 -43.91444 30284 ft 457 kts 324°
2026-05-04 17:02 -20.94741 -43.98099 30266 ft 457 kts 324°
2026-05-04 17:03 -20.86377 -44.03104 30265 ft 457 kts 324°
2026-05-04 17:03 -20.78053 -44.08078 30260 ft 458 kts 324°
2026-05-04 17:04 -20.67181 -44.15113 30257 ft 456 kts 322°
2026-05-04 17:05 -20.56301 -44.22143 30257 ft 456 kts 323°
2026-05-04 17:06 -20.48128 -44.27394 30252 ft 457 kts 323°
2026-05-04 17:07 -20.40840 -44.32077 30247 ft 457 kts 323°
2026-05-04 17:07 -20.34498 -44.36158 30243 ft 457 kts 323°
2026-05-04 17:08 -20.26285 -44.41435 30241 ft 457 kts 323°
2026-05-04 17:09 -20.20843 -44.44931 30239 ft 458 kts 323°
2026-05-04 17:09 -20.15351 -44.48451 30241 ft 458 kts 323°
2026-05-04 17:10 -20.01666 -44.57220 30233 ft 459 kts 323°
2026-05-04 17:11 -19.96167 -44.60738 30223 ft 460 kts 323°
2026-05-04 17:12 -19.87932 -44.66002 30221 ft 461 kts 323°
2026-05-04 17:13 -19.74153 -44.74794 30217 ft 463 kts 323°
2026-05-04 17:14 -19.63091 -44.81840 30209 ft 463 kts 324°
2026-05-04 17:15 -19.54776 -44.87128 30202 ft 464 kts 324°
2026-05-04 17:16 -19.43683 -44.94173 30182 ft 465 kts 324°
2026-05-04 17:17 -19.32547 -45.01234 30171 ft 466 kts 324°
2026-05-04 17:18 -19.21398 -45.08292 30163 ft 466 kts 324°
2026-05-04 17:19 -19.10243 -45.15342 30153 ft 466 kts 324°
2026-05-04 17:20 -18.99074 -45.22391 30153 ft 467 kts 324°
2026-05-04 17:20 -18.90686 -45.27676 30156 ft 467 kts 324°
2026-05-04 17:21 -18.79521 -45.34703 30155 ft 468 kts 324°
2026-05-04 17:22 -18.73932 -45.38215 30158 ft 468 kts 324°
2026-05-04 17:23 -18.62713 -45.45260 30159 ft 469 kts 324°
2026-05-04 17:24 -18.54265 -45.50556 30157 ft 469 kts 324°
2026-05-04 17:25 -18.43060 -45.57644 30167 ft 467 kts 320°
2026-05-04 17:26 -18.32695 -45.65773 30182 ft 465 kts 319°
2026-05-04 17:27 -18.19637 -45.75965 30187 ft 467 kts 319°
2026-05-04 17:28 -18.09151 -45.84131 30184 ft 469 kts 319°
2026-05-04 17:29 -17.93393 -45.96378 30170 ft 469 kts 319°
2026-05-04 17:31 -17.80295 -46.06536 30153 ft 467 kts 319°
2026-05-04 17:32 -17.67201 -46.16672 30138 ft 469 kts 319°
2026-05-04 17:33 -17.56655 -46.24822 30145 ft 469 kts 319°
2026-05-04 17:34 -17.46129 -46.32944 30137 ft 470 kts 319°
2026-05-04 17:35 -17.32911 -46.43126 30131 ft 469 kts 319°
2026-05-04 17:36 -17.27648 -46.47176 30131 ft 470 kts 319°
2026-05-04 17:36 -17.22378 -46.51229 30129 ft 471 kts 320°
2026-05-04 17:37 -17.17074 -46.55303 30133 ft 471 kts 320°
2026-05-04 17:37 -17.11794 -46.59384 30144 ft 470 kts 317°
2026-05-04 17:38 -17.06843 -46.63852 30140 ft 469 kts 315°
2026-05-04 17:38 -17.01910 -46.68288 30153 ft 470 kts 315°
2026-05-04 17:39 -16.94422 -46.74973 30149 ft 471 kts 316°
2026-05-04 17:39 -16.89413 -46.79429 30152 ft 471 kts 316°
2026-05-04 17:40 -16.84413 -46.83873 30162 ft 471 kts 316°
2026-05-04 17:40 -16.79387 -46.88336 30170 ft 471 kts 316°
2026-05-04 17:41 -16.74388 -46.92772 30168 ft 472 kts 316°
2026-05-04 17:41 -16.69374 -46.97216 30181 ft 472 kts 316°
2026-05-04 17:42 -16.64365 -47.01655 30174 ft 473 kts 316°
2026-05-04 17:42 -16.59364 -47.06081 30182 ft 472 kts 316°
2026-05-04 17:43 -16.54319 -47.10545 30179 ft 473 kts 316°
2026-05-04 17:43 -16.49292 -47.14987 30172 ft 473 kts 316°
2026-05-04 17:44 -16.44271 -47.19421 30179 ft 473 kts 315°
2026-05-04 17:44 -16.39213 -47.23888 30168 ft 474 kts 316°
2026-05-04 17:45 -16.34543 -47.28624 30176 ft 470 kts 311°
2026-05-04 17:45 -16.29951 -47.33497 30176 ft 470 kts 310°
2026-05-04 17:46 -16.25333 -47.38369 30174 ft 470 kts 311°
2026-05-04 17:46 -16.20713 -47.43220 30168 ft 470 kts 311°
2026-05-04 17:47 -16.16126 -47.48030 30183 ft 470 kts 311°
2026-05-04 17:47 -16.11497 -47.52875 30185 ft 470 kts 311°
2026-05-04 17:48 -16.06873 -47.57712 30184 ft 471 kts 311°
2026-05-04 17:48 -16.02259 -47.62535 30191 ft 471 kts 311°
2026-05-04 17:49 -15.97616 -47.67385 30198 ft 472 kts 311°
2026-05-04 17:49 -15.92968 -47.72237 30204 ft 472 kts 311°
2026-05-04 17:50 -15.88316 -47.77089 30208 ft 473 kts 311°
2026-05-04 17:50 -15.83657 -47.81944 30216 ft 472 kts 311°
2026-05-04 17:51 -15.79040 -47.86754 30216 ft 471 kts 311°
2026-05-04 17:51 -15.74380 -47.91604 30221 ft 471 kts 311°
2026-05-04 17:52 -15.69742 -47.96428 30213 ft 472 kts 311°
2026-05-04 17:52 -15.65090 -48.01263 30206 ft 472 kts 311°
2026-05-04 17:53 -15.60446 -48.06087 30196 ft 473 kts 311°
2026-05-04 17:53 -15.55785 -48.10925 30184 ft 473 kts 311°
2026-05-04 17:54 -15.50679 -48.15250 30191 ft 480 kts 326°
2026-05-04 17:54 -15.44381 -48.17812 30176 ft 489 kts 344°
2026-05-04 17:55 -15.37523 -48.18423 30169 ft 495 kts 355°
2026-05-04 17:55 -15.30638 -48.18667 30154 ft 495 kts 355°
2026-05-04 17:56 -15.23721 -48.18895 30148 ft 495 kts 355°
2026-05-04 17:56 -15.16804 -48.19117 30146 ft 496 kts 355°
2026-05-04 17:57 -15.09868 -48.19336 30144 ft 495 kts 355°
2026-05-04 17:57 -15.02972 -48.19553 30154 ft 495 kts 355°
2026-05-04 17:58 -14.96052 -48.19770 30155 ft 495 kts 355°
2026-05-04 17:58 -14.89306 -48.20711 30168 ft 488 kts 342°
2026-05-04 17:59 -14.82679 -48.22463 30155 ft 487 kts 342°
2026-05-04 18:00 -14.72764 -48.25096 30155 ft 488 kts 342°
2026-05-04 18:00 -14.66198 -48.26846 30143 ft 489 kts 342°
2026-05-04 18:01 -14.59549 -48.28617 30133 ft 489 kts 342°
2026-05-04 18:01 -14.52932 -48.30378 30129 ft 490 kts 342°
2026-05-04 18:02 -14.42992 -48.33023 30104 ft 491 kts 342°
2026-05-04 18:02 -14.36330 -48.34794 30090 ft 492 kts 342°
2026-05-04 18:03 -14.29709 -48.36553 30078 ft 492 kts 342°
2026-05-04 18:03 -14.23064 -48.38318 30062 ft 491 kts 342°
2026-05-04 18:04 -14.16441 -48.40075 30061 ft 491 kts 342°
2026-05-04 18:05 -14.06447 -48.42726 30052 ft 492 kts 342°
2026-05-04 18:05 -13.99816 -48.44483 30042 ft 493 kts 342°
2026-05-04 18:06 -13.89847 -48.47123 30049 ft 493 kts 342°
2026-05-04 18:06 -13.83118 -48.48903 30046 ft 493 kts 342°
2026-05-04 18:07 -13.76447 -48.50667 30042 ft 494 kts 342°
2026-05-04 18:07 -13.69774 -48.52431 30035 ft 494 kts 342°
2026-05-04 18:08 -13.63106 -48.54192 30033 ft 494 kts 342°
2026-05-04 18:08 -13.56410 -48.55960 30027 ft 494 kts 343°
2026-05-04 18:09 -13.43021 -48.59492 30035 ft 495 kts 343°
2026-05-04 18:10 -13.36338 -48.61252 30028 ft 496 kts 343°
2026-05-04 18:10 -13.29630 -48.63018 30035 ft 496 kts 343°
2026-05-04 18:11 -13.22923 -48.64784 30033 ft 496 kts 343°
2026-05-04 18:11 -13.16184 -48.66557 30037 ft 497 kts 343°
2026-05-04 18:12 -13.09455 -48.68327 30034 ft 497 kts 343°
2026-05-04 18:12 -13.02714 -48.70098 30027 ft 498 kts 343°
2026-05-04 18:13 -12.96001 -48.71860 30022 ft 497 kts 343°
2026-05-04 18:14 -12.85913 -48.74508 30011 ft 499 kts 343°
2026-05-04 18:14 -12.79125 -48.76288 30002 ft 498 kts 343°
2026-05-04 18:15 -12.65670 -48.79855 29993 ft 498 kts 340°
2026-05-04 18:16 -12.59404 -48.82852 30002 ft 493 kts 329°
2026-05-04 18:16 -12.53383 -48.86221 29992 ft 494 kts 329°
2026-05-04 18:17 -12.44330 -48.91312 29984 ft 494 kts 329°
2026-05-04 18:18 -12.35245 -48.96423 29982 ft 495 kts 329°
2026-05-04 18:18 -12.29236 -48.99803 29984 ft 495 kts 329°
2026-05-04 18:19 -12.20129 -49.04924 29981 ft 495 kts 329°
2026-05-04 18:19 -12.14109 -49.08304 29975 ft 494 kts 329°
2026-05-04 18:20 -12.08095 -49.11680 29976 ft 492 kts 329°
2026-05-04 18:20 -12.02055 -49.15070 29979 ft 493 kts 329°
2026-05-04 18:21 -11.96030 -49.18451 29969 ft 493 kts 329°
2026-05-04 18:21 -11.90011 -49.21825 29968 ft 494 kts 329°
2026-05-04 18:22 -11.83960 -49.25215 29962 ft 494 kts 329°
2026-05-04 18:22 -11.77903 -49.28608 29967 ft 494 kts 330°
2026-05-04 18:23 -11.71850 -49.31997 29971 ft 495 kts 330°
2026-05-04 18:23 -11.65808 -49.35376 29966 ft 494 kts 330°
2026-05-04 18:24 -11.59759 -49.38760 29964 ft 493 kts 330°
2026-05-04 18:24 -11.53714 -49.42138 29960 ft 493 kts 330°
2026-05-04 18:25 -11.47704 -49.45495 29958 ft 494 kts 330°
2026-05-04 18:25 -11.41625 -49.48889 29954 ft 494 kts 330°
2026-05-04 18:26 -11.35596 -49.52254 29951 ft 494 kts 330°
2026-05-04 18:26 -11.29548 -49.55628 29947 ft 495 kts 330°
2026-05-04 18:27 -11.23498 -49.59001 29937 ft 494 kts 330°
2026-05-04 18:27 -11.17445 -49.62374 29943 ft 494 kts 330°
2026-05-04 18:28 -11.11420 -49.65729 29940 ft 494 kts 330°
2026-05-04 18:28 -11.05384 -49.69091 29937 ft 494 kts 330°
2026-05-04 18:29 -10.99330 -49.72459 29937 ft 493 kts 330°
2026-05-04 18:29 -10.93259 -49.75837 29936 ft 493 kts 330°
2026-05-04 18:30 -10.84210 -49.80867 29938 ft 493 kts 330°
2026-05-04 18:31 -10.78186 -49.84214 29930 ft 493 kts 330°
2026-05-04 18:31 -10.72129 -49.87578 29930 ft 493 kts 330°
2026-05-04 18:32 -10.66104 -49.90921 29928 ft 493 kts 330°
2026-05-04 18:32 -10.60036 -49.94288 29924 ft 494 kts 330°
2026-05-04 18:33 -10.53891 -49.97392 29935 ft 493 kts 336°
2026-05-04 18:33 -10.47613 -50.00232 29931 ft 494 kts 335°
2026-05-04 18:34 -10.41338 -50.03085 29936 ft 493 kts 335°
2026-05-04 18:34 -10.35062 -50.05938 29935 ft 493 kts 335°
2026-05-04 18:35 -10.28747 -50.08811 29938 ft 492 kts 335°
2026-05-04 18:35 -10.22516 -50.11646 29938 ft 493 kts 335°
2026-05-04 18:36 -10.16234 -50.14502 29932 ft 493 kts 335°
2026-05-04 18:36 -10.09934 -50.17365 29934 ft 493 kts 335°
2026-05-04 18:37 -10.03635 -50.20227 29937 ft 493 kts 335°
2026-05-04 18:37 -9.97386 -50.23064 29937 ft 492 kts 335°
2026-05-04 18:38 -9.91120 -50.25909 29937 ft 492 kts 335°
2026-05-04 18:38 -9.84822 -50.28767 29935 ft 492 kts 335°
2026-05-04 18:39 -9.78557 -50.31609 29931 ft 493 kts 335°
2026-05-04 18:39 -9.72277 -50.34455 29931 ft 492 kts 335°
2026-05-04 18:40 -9.65995 -50.37300 29940 ft 493 kts 335°
2026-05-04 18:40 -9.59722 -50.40143 29940 ft 493 kts 335°
2026-05-04 18:41 -9.53448 -50.42983 29943 ft 492 kts 335°
2026-05-04 18:41 -9.47152 -50.45834 29944 ft 492 kts 335°
2026-05-04 18:42 -9.40914 -50.48655 29946 ft 491 kts 335°
2026-05-04 18:42 -9.34668 -50.51480 29948 ft 492 kts 335°
2026-05-04 18:43 -9.28403 -50.54313 29947 ft 491 kts 335°
2026-05-04 18:43 -9.22115 -50.57154 29951 ft 491 kts 335°
2026-05-04 18:44 -9.15883 -50.59969 29952 ft 491 kts 335°
2026-05-04 18:44 -9.09643 -50.62787 29956 ft 491 kts 335°
2026-05-04 18:45 -9.03402 -50.65604 29963 ft 489 kts 335°
2026-05-04 18:45 -8.97142 -50.68428 29967 ft 488 kts 335°
2026-05-04 18:46 -8.90937 -50.71227 29973 ft 489 kts 335°
2026-05-04 18:46 -8.84699 -50.74040 29974 ft 489 kts 335°
2026-05-04 18:47 -8.78467 -50.76848 29980 ft 489 kts 335°
2026-05-04 18:47 -8.72221 -50.79662 29981 ft 490 kts 335°
2026-05-04 18:48 -8.65989 -50.82469 29983 ft 489 kts 335°
2026-05-04 18:48 -8.59759 -50.85274 29978 ft 489 kts 335°
2026-05-04 18:49 -8.53527 -50.88078 29978 ft 489 kts 335°
2026-05-04 18:49 -8.47274 -50.90891 29978 ft 489 kts 335°
2026-05-04 18:50 -8.41029 -50.93700 29969 ft 490 kts 335°
2026-05-04 18:50 -8.34795 -50.96502 29970 ft 489 kts 335°
2026-05-04 18:51 -8.28570 -50.99300 29971 ft 488 kts 335°
2026-05-04 18:51 -8.22314 -51.02111 29967 ft 489 kts 335°
2026-05-04 18:52 -8.16081 -51.04909 29963 ft 490 kts 335°
2026-05-04 18:52 -8.09864 -51.07700 29959 ft 490 kts 335°
2026-05-04 18:53 -8.03611 -51.10506 29955 ft 489 kts 335°
2026-05-04 18:53 -7.97339 -51.13320 29955 ft 490 kts 335°
2026-05-04 18:54 -7.91109 -51.16114 29956 ft 491 kts 335°
2026-05-04 18:54 -7.84856 -51.18917 29957 ft 489 kts 335°
2026-05-04 18:55 -7.78600 -51.21721 29957 ft 488 kts 335°
2026-05-04 18:55 -7.69254 -51.25908 29949 ft 489 kts 335°
2026-05-04 18:56 -7.63015 -51.28702 29953 ft 489 kts 335°
2026-05-04 18:56 -7.56856 -51.31631 29955 ft 489 kts 334°
2026-05-04 18:57 -7.50692 -51.34587 29957 ft 489 kts 334°
2026-05-04 18:57 -7.44513 -51.37548 29960 ft 489 kts 334°
2026-05-04 18:58 -7.38366 -51.40492 29962 ft 489 kts 334°
2026-05-04 18:58 -7.32174 -51.43457 29958 ft 489 kts 334°
2026-05-04 18:59 -7.26024 -51.46400 29953 ft 488 kts 334°
2026-05-04 18:59 -7.19904 -51.49328 29953 ft 488 kts 334°
2026-05-04 19:00 -7.13729 -51.52282 29953 ft 488 kts 334°
2026-05-04 19:00 -7.07558 -51.55234 29956 ft 489 kts 334°
2026-05-04 19:01 -7.01396 -51.58182 29956 ft 489 kts 334°
2026-05-04 19:01 -6.95247 -51.61122 29954 ft 487 kts 334°
2026-05-04 19:02 -6.89078 -51.64072 29955 ft 488 kts 334°
2026-05-04 19:02 -6.82910 -51.67021 29955 ft 488 kts 334°
2026-05-04 19:03 -6.76743 -51.69968 29951 ft 488 kts 334°
2026-05-04 19:03 -6.70600 -51.72901 29944 ft 487 kts 334°
2026-05-04 19:04 -6.64473 -51.75825 29942 ft 487 kts 334°
2026-05-04 19:04 -6.58300 -51.78771 29941 ft 487 kts 334°
2026-05-04 19:05 -6.52151 -51.81704 29947 ft 488 kts 334°
2026-05-04 19:05 -6.45989 -51.84643 29953 ft 488 kts 334°
2026-05-04 19:06 -6.39837 -51.87576 29952 ft 488 kts 334°
2026-05-04 19:06 -6.33687 -51.90508 29950 ft 488 kts 334°
2026-05-04 19:07 -6.27551 -51.93432 29944 ft 488 kts 334°
2026-05-04 19:07 -6.21414 -51.96355 29938 ft 488 kts 334°
2026-05-04 19:08 -6.15253 -51.99289 29932 ft 487 kts 334°
2026-05-04 19:08 -6.09097 -52.02221 29928 ft 488 kts 334°
2026-05-04 19:09 -6.02950 -52.05147 29925 ft 489 kts 334°
2026-05-04 19:09 -5.96791 -52.08078 29924 ft 488 kts 334°
2026-05-04 19:10 -5.90647 -52.11001 29931 ft 488 kts 334°
2026-05-04 19:10 -5.84510 -52.13921 29937 ft 487 kts 334°
2026-05-04 19:11 -5.78374 -52.16839 29943 ft 487 kts 334°
2026-05-04 19:11 -5.72225 -52.19762 29946 ft 488 kts 334°
2026-05-04 19:12 -5.63008 -52.24144 29937 ft 488 kts 334°
2026-05-04 19:13 -5.56824 -52.27082 29931 ft 488 kts 334°
2026-05-04 19:13 -5.50688 -52.29997 29925 ft 488 kts 334°
2026-05-04 19:14 -5.44545 -52.32915 29924 ft 486 kts 334°
2026-05-04 19:14 -5.38400 -52.35832 29927 ft 487 kts 334°
2026-05-04 19:15 -5.32290 -52.38732 29925 ft 488 kts 334°
2026-05-04 19:15 -5.26091 -52.41675 29924 ft 488 kts 334°
2026-05-04 19:16 -5.19948 -52.44591 29920 ft 488 kts 334°
2026-05-04 19:16 -5.13810 -52.47502 29911 ft 488 kts 334°
2026-05-04 19:17 -5.07632 -52.50433 29909 ft 488 kts 334°
2026-05-04 19:17 -5.01504 -52.53339 29901 ft 488 kts 335°
2026-05-04 19:18 -4.95330 -52.56266 29900 ft 488 kts 335°
2026-05-04 19:18 -4.89181 -52.59181 29897 ft 488 kts 334°
2026-05-04 19:19 -4.83024 -52.62098 29893 ft 488 kts 334°
2026-05-04 19:19 -4.76875 -52.65012 29893 ft 488 kts 335°
2026-05-04 19:20 -4.70675 -52.67950 29892 ft 488 kts 335°
2026-05-04 19:20 -4.64538 -52.70856 29891 ft 488 kts 335°
2026-05-04 19:21 -4.58378 -52.73773 29892 ft 488 kts 335°
2026-05-04 19:21 -4.52218 -52.76689 29898 ft 488 kts 335°